• Join FlightAware (Why Join?)
  • Login
  • US Flag 
11:53PM EDT


 

Airport Tracker/Info


-or-


 

Live Flight TrackerFlight Track Log ✈ RPA3321 ✈ 02-May-2013 ✈ KALB - KDCA

Flight Track Log - Related Links

Times and Time Zones

All times are in EDT time to prevent confusion due to time zone crossing. See the RPA3321 flight status page for this flight to view local times or setup timezone preferences in your user account.

Time Position Orientation Groundspeed Altitude Reporting Facility
EDT Latitude Longitude Course Direction KTS MPH feet Rate Location/Type
05:53AM 42.7672 -73.8061 119° Southeast 144 166 1,400  Level Boston Center
05:54AM 42.8064 -73.8467 323° Northwest 215 247 3,100 2,100 Climbing Boston Center
05:55AM 42.5153 -74.0095 171° South  Level Estimated
05:55AM 42.7414 -73.8819 202° Southwest 238 274 6,500  Level Boston Center
05:56AM 42.4373 -74.0783 180° South  Level Estimated
05:56AM 42.6564 -73.8517 165° South 246 283 9,700  Level Boston Center
05:57AM 42.3593 -74.1470 172° South  Level Estimated
05:57AM 42.5817 -73.8303 168° South 280 322 11,300  Level Boston Center
05:58AM 42.3139 -74.0371 119° Southeast  Level FlightAware Approximate
05:58AM 42.4839 -73.8028 168° South 324 373 13,900  Level Boston Center
05:59AM 42.3967 -73.7783 168° South 345 397 15,900 2,100 Climbing Boston Center
06:00AM 42.2886 -73.7478 168° South 360 414 18,100 1,800 Climbing Boston Center
06:01AM 42.1869 -73.7206 169° South 367 422 19,500 1,320 Climbing Boston Center
06:02AM 42.0933 -73.6878 165° South 373 429 20,800 1,560 Climbing Boston Center
06:03AM 41.9703 -73.7050 186° South 394 453 22,700 1,680 Climbing Boston Center
06:04AM 41.8611 -73.7697 204° Southwest 394 453 24,200 900 Climbing Boston Center
06:07AM 41.5964 -73.9250 204° Southwest 443 510 26,000 480 Climbing New York Center
06:07AM 41.5031 -73.9844 206° Southwest 431 496 26,000  Level New York Center
06:08AM 41.3783 -74.0586 204° Southwest 431 496 26,000  Level New York Center
06:09AM 41.2661 -74.1247 204° Southwest 431 496 26,000  Level New York Center
06:10AM 41.1581 -74.1883 204° Southwest 431 496 26,000  Level New York Center
06:11AM 41.0417 -74.2483 201° Southwest 446 513 26,000  Level New York Center
06:12AM 40.9314 -74.3169 205° Southwest 436 502 26,000  Level New York Center
06:13AM 40.8189 -74.3822 204° Southwest 431 496 26,000  Level New York Center
06:14AM 40.7322 -74.4928 224° Southwest 436 502 26,000  Level New York Center
06:15AM 40.6572 -74.6172 232° Southwest 434 499 26,000  Level New York Center
06:16AM 40.5822 -74.7414 232° Southwest 439 505 26,000 -120 Level New York Center
06:17AM 40.4992 -74.8594 227° Southwest 439 505 25,800 -420 Descending New York Center
06:18AM 40.4156 -74.9800 228° Southwest 444 511 25,200 -600 Descending New York Center
06:19AM 40.3322 -75.0947 226° Southwest 444 511 24,600 -660 Descending New York Center
06:20AM 40.2553 -75.2067 228° Southwest 439 505 24,000 -600 Descending New York Center
06:21AM 40.1758 -75.3186 227° Southwest 427 491 23,400 -660 Descending New York Center
06:22AM 40.1033 -75.4197 227° Southwest 427 491 22,700 -720 Descending New York Center
06:23AM 40.0261 -75.5256 226° Southwest 422 486 22,000 -360 Descending New York Center
06:24AM 39.9486 -75.6342 227° Southwest 422 486 22,000 -60 Level New York Center
06:25AM 39.8794 -75.7456 231° Southwest 422 486 21,900 -720 Descending New York Center
06:28AM 39.7333 -75.9833 231° Southwest 387 445 19,800 -1,320 Descending Potomac TRACON
06:28AM 39.6667 -76.0833 229° Southwest 381 438 18,200 -1,860 Descending Potomac TRACON
06:29AM 39.6000 -76.1833 229° Southwest 370 426 16,300 -1,860 Descending Potomac TRACON
06:30AM 39.5333 -76.2833 229° Southwest 355 409 14,500 -1,860 Descending Potomac TRACON
06:31AM 39.4833 -76.3667 232° Southwest 333 383 12,800 -1,620 Descending Potomac TRACON
06:32AM 39.4167 -76.4333 218° Southwest 326 375 11,600 -1,380 Descending Potomac TRACON
06:33AM 39.3333 -76.5167 218° Southwest 311 358 10,100 -720 Descending Potomac TRACON
06:34AM 39.2667 -76.5667 210° Southwest 309 356 10,100  Level Potomac TRACON
06:35AM 39.2000 -76.6333 218° Southwest 298 343 10,100  Level Potomac TRACON
06:36AM 39.1500 -76.7000 226° Southwest 297 342 10,100  Level Potomac TRACON
06:37AM 39.0833 -76.7667 218° Southwest 298 343 10,100  Level Potomac TRACON
06:38AM 39.0333 -76.8167 218° Southwest 299 344 10,100 -720 Level Potomac TRACON
06:39AM 38.9667 -76.9000 224° Southwest 295 339 8,800 -1,500 Descending Potomac TRACON
06:40AM 38.9000 -76.9500 210° Southwest 286 329 7,100 -1,440 Descending Potomac TRACON
06:41AM 38.8333 -76.9500 180° South 283 326 6,100 -960 Descending Potomac TRACON
06:42AM 38.7667 -76.9500 180° South 270 311 5,300 -1,140 Descending Potomac TRACON
06:43AM 38.7000 -76.9333 169° South 257 296 4,000 -840 Descending Potomac TRACON
06:44AM 38.6333 -76.9333 180° South 202 232 3,800 -780 Descending Potomac TRACON
06:45AM 38.6333 -76.9833 270° West 206 237 2,600 -720 Descending Potomac TRACON
06:46AM 38.6833 -77.0167 333° Northwest 173 199 2,500 -180 Descending Potomac TRACON
06:47AM 38.7333 -77.0333 345° North 161 185 2,300 -480 Descending Potomac TRACON
06:48AM 38.7667 -77.0333 360° North 124 143 1,700 -720 Descending Potomac TRACON